TimeEDT,TemperatureF,Dew PointF,Humidity,Sea Level PressureIn,VisibilityMPH,Wind Direction,Wind SpeedMPH,Gust SpeedMPH,PrecipitationIn,Events,Conditions,WindDirDegrees,DateUTC
12:52 AM,44.1,39.9,85,29.99,10.0,South,6.9,-,N/A,,Mostly Cloudy,180,2013-04-08 04:52:00
1:20 AM,42.8,39.2,87,29.98,10.0,SSW,4.6,-,N/A,,Mostly Cloudy,200,2013-04-08 05:20:00
1:49 AM,42.8,39.2,87,29.98,10.0,SSW,4.6,-,N/A,,Scattered Clouds,200,2013-04-08 05:49:00
1:52 AM,42.1,39.0,89,29.99,10.0,SSW,5.8,-,N/A,,Scattered Clouds,200,2013-04-08 05:52:00
2:52 AM,39.9,39.0,97,29.97,10.0,SSW,4.6,-,N/A,,Scattered Clouds,200,2013-04-08 06:52:00
3:00 AM,39.2,39.2,100,29.96,10.0,Calm,Calm,-,N/A,,Mostly Cloudy,0,2013-04-08 07:00:00
3:52 AM,39.0,37.0,93,29.99,7.0,Calm,Calm,-,N/A,,Overcast,0,2013-04-08 07:52:00
4:42 AM,35.6,35.6,100,29.97,2.5,NNW,3.5,-,N/A,,Scattered Clouds,330,2013-04-08 08:42:00
4:52 AM,35.1,35.1,100,29.98,1.5,NW,3.5,-,N/A,,Partly Cloudy,310,2013-04-08 08:52:00
4:54 AM,35.6,33.8,93,29.97,1.0,WNW,3.5,-,N/A,,Clear,300,2013-04-08 08:54:00
5:03 AM,33.8,33.8,100,29.97,1.5,Calm,Calm,-,N/A,,Clear,0,2013-04-08 09:03:00
5:19 AM,35.6,35.6,100,29.97,2.0,Calm,Calm,-,N/A,,Partly Cloudy,0,2013-04-08 09:19:00
5:24 AM,35.6,33.8,93,29.98,1.2,Calm,Calm,-,N/A,,Clear,0,2013-04-08 09:24:00
5:32 AM,33.8,33.8,100,29.98,1.2,Calm,Calm,-,N/A,,Partly Cloudy,0,2013-04-08 09:32:00
5:34 AM,33.8,32.0,93,29.98,2.0,Calm,Calm,-,N/A,,Partly Cloudy,0,2013-04-08 09:34:00
5:46 AM,33.8,32.0,93,29.98,1.2,Calm,Calm,-,N/A,,Partly Cloudy,0,2013-04-08 09:46:00
5:50 AM,33.8,32.0,93,29.98,0.8,Calm,Calm,-,N/A,,Mist,0,2013-04-08 09:50:00
5:52 AM,33.1,32.0,96,30.00,0.8,Calm,Calm,-,N/A,,Mist,0,2013-04-08 09:52:00
6:52 AM,33.1,32.0,96,30.02,0.2,Calm,Calm,-,N/A,Fog,Fog,0,2013-04-08 10:52:00
7:03 AM,33.8,33.8,100,30.01,1.2,Calm,Calm,-,N/A,,Overcast,0,2013-04-08 11:03:00
7:05 AM,33.8,33.8,100,30.02,2.0,Calm,Calm,-,N/A,,Overcast,0,2013-04-08 11:05:00
7:16 AM,33.8,33.8,100,30.02,1.2,Calm,Calm,-,N/A,,Overcast,0,2013-04-08 11:16:00
7:21 AM,33.8,33.8,100,30.02,0.8,Calm,Calm,-,N/A,,Overcast,0,2013-04-08 11:21:00
7:35 AM,35.6,35.6,100,30.02,1.2,Calm,Calm,-,N/A,,Mostly Cloudy,0,2013-04-08 11:35:00
7:38 AM,35.6,35.6,100,30.03,1.8,Calm,Calm,-,N/A,,Scattered Clouds,0,2013-04-08 11:38:00
7:42 AM,35.6,35.6,100,30.02,3.0,Calm,Calm,-,N/A,,Scattered Clouds,0,2013-04-08 11:42:00
7:52 AM,36.0,35.1,97,30.04,5.0,Calm,Calm,-,N/A,,Partly Cloudy,0,2013-04-08 11:52:00
8:52 AM,43.0,37.9,82,30.04,10.0,Calm,Calm,-,N/A,,Clear,0,2013-04-08 12:52:00
9:52 AM,48.0,35.1,61,30.06,10.0,NNW,9.2,-,N/A,,Clear,340,2013-04-08 13:52:00
10:52 AM,51.1,35.1,54,30.07,10.0,WNW,10.4,-,N/A,,Clear,290,2013-04-08 14:52:00
11:52 AM,54.0,33.1,45,30.07,10.0,Variable,5.8,-,N/A,,Clear,0,2013-04-08 15:52:00
12:52 PM,57.0,32.0,39,30.07,10.0,Variable,3.5,-,N/A,,Clear,0,2013-04-08 16:52:00
1:52 PM,59.0,30.9,35,30.06,10.0,Calm,Calm,-,N/A,,Clear,0,2013-04-08 17:52:00
2:52 PM,62.1,28.0,28,30.05,10.0,WNW,9.2,-,N/A,,Clear,300,2013-04-08 18:52:00
3:52 PM,64.0,25.0,23,30.04,10.0,NW,5.8,-,N/A,,Clear,310,2013-04-08 19:52:00
4:52 PM,63.0,26.1,25,30.02,10.0,Calm,Calm,-,N/A,,Clear,0,2013-04-08 20:52:00
5:52 PM,63.0,26.1,25,30.03,10.0,Calm,Calm,-,N/A,,Clear,0,2013-04-08 21:52:00
6:52 PM,57.0,33.1,40,30.05,10.0,South,4.6,-,N/A,,Clear,190,2013-04-08 22:52:00
7:52 PM,52.0,35.1,53,30.04,10.0,Calm,Calm,-,N/A,,Clear,0,2013-04-08 23:52:00
8:52 PM,48.0,36.0,63,30.06,10.0,Calm,Calm,-,N/A,,Clear,0,2013-04-09 00:52:00
9:52 PM,48.0,37.0,66,30.06,10.0,Calm,Calm,-,N/A,,Scattered Clouds,0,2013-04-09 01:52:00
10:52 PM,46.9,37.0,68,30.05,10.0,Calm,Calm,-,N/A,,Partly Cloudy,0,2013-04-09 02:52:00
11:52 PM,46.0,37.9,73,30.04,10.0,Calm,Calm,-,N/A,,Mostly Cloudy,0,2013-04-09 03:52:00